Regional Weather Roundup
Issued by NWS Cleveland, OH

Home | Current Version | Previous Version | Graphics & Text | Print | Product List | Glossary On
Versions: 1 2 3 4 5 6 7 8 9 10 11 12 13 14 15 16 17 18 19 20 21 22 23 24 25 26 27 28 29 30 31 32 33 34 35 36 37 38 39 40 41 42 43 44 45 46 47 48 49 50
000
ASUS41 KCLE 272100
RWRCLE
OHIO REGIONAL WEATHER ROUNDUP
NATIONAL WEATHER SERVICE WILMINGTON, OH
500 PM EDT SUN MAY 27 2018

NOTE: "FAIR" INDICATES FEW OR NO CLOUDS BELOW 12,000 FEET WITH NO
SIGNIFICANT WEATHER AND/OR OBSTRUCTIONS TO VISIBILITY.

OHZ001>008-015>018-024>027-034-035-043-044-272200-
   NORTHWEST OHIO

CITY           SKY/WX    TMP DP  RH WIND       PRES   REMARKS
DEFIANCE       FAIR      91  60  35 VRB3      29.88F HX  90
FINDLAY        FAIR      92  57  30 N5        29.89F HX  90
TOLEDO EXPRESS FAIR      93  60  33 VRB5      29.87F HX  93
TOLEDO EXEC    FAIR      90  60  36 CALM      29.88F
LIMA           FAIR      89  58  34 NE3       29.90F
$$

OHZ009>014-019>023-028>033-038-089-272200-
   NORTHEAST OHIO

CITY           SKY/WX    TMP DP  RH WIND       PRES   REMARKS
CLE-HOPKINS    PTSUNNY   86  66  51 N12       29.92F
CLE-LAKEFRONT  FAIR      79  68  69 N6        29.90F
CUY CO. ARPT   PTSUNNY   86  64  48 NW8       29.93S
LORAIN-ELYRIA  FAIR      86  62  44 NE5       29.91F
ASHTABULA      FAIR      81  69  67 NW8       29.94R
AKRON-CANTON   PTSUNNY   86  67  52 NW3       29.94S
WOOSTER        NOT AVBL
MANSFIELD      FAIR      88  63  43 NW7       29.93F
YOUNGSTOWN     PTSUNNY   83  65  54 NW6       29.93F
$$

OHZ042-051>053-060>062-070>072-077>081-272200-
  SOUTHWEST OHIO

CITY           SKY/WX    TMP DP  RH WIND       PRES   REMARKS
CINC-COVINGTON FAIR      86  66  51 N6        29.90F
CINC-LUNKEN    FAIR      86  72  62 SW5       29.89S HX  92
HAMILTON       FAIR      90  66  45 N5        29.89F HX  92
DAYTON         NOT AVBL
WRIGHT-PAT AFB FAIR      89  63  40 CALM      29.89F HX  90
DAYTON GENERAL FAIR      91  57  31 NW8       29.90S
WILMINGTON     FAIR      88  66  48 N8        29.90F HX  90
$$

OHZ036-037-039>041-045>050-054>059-063>069-073>076-082>088-272200-
  CENTRAL AND SOUTHEAST OHIO

CITY           SKY/WX    TMP DP  RH WIND       PRES   REMARKS
COLUMBUS       FAIR      89  66  46 N5        29.89F HX  91
OSU AIRPORT    FAIR      87  64  46 CALM      29.90F
BOLTON FIELD   SUNNY     88  64  45 CALM      29.90F
RICKENBACK AFB NOT AVBL
NEWARK         FAIR      87  68  52 N6        29.90F HX  90
MARION         FAIR      90  61  37 N8        29.90F HX  90
LANCASTER      FAIR      86  65  49 CALM      29.91S
ZANESVILLE     FAIR      85  68  56 NE6       29.92F
NEW PHILLY     CLOUDY    83  68  60 NE5       29.93F
$$



USA.gov is the U.S. government's official web portal to all federal, state and local government web resources and services.